Muskegon, MI

6:10 PM EST on November 19, 2019 (GMT -0500)
Muskegon County

Weather History for KMKG - September, 2019

Change the Weather History Date:

Sunday, September 29, 2019

  Actual Average Record
Temperature  
Mean Temperature 56 °F 57 °F  
Max Temperature 59 °F 66 °F 92 °F (1953)
Min Temperature 52 °F 48 °F 31 °F (1991)
Degree Days  
Heating Degree Days 9 9  
Month to date heating degree days 38 134  
Since 1 July heating degree days 42 164  
Cooling Degree Days 0 1  
Month to date cooling degree days 82 56  
Year to date cooling degree days 627 563  
Growing Degree Days 6 (Base 50)    
Moisture  
Dew Point 52 °F    
Average Humidity 88    
Maximum Humidity 93    
Minimum Humidity 83    
Precipitation  
Precipitation 0.41 in 0.12 in 2.28 in (1906)
Month to date precipitation 5.85 3.76  
Year to date precipitation 32.98 24.34  
Snow  
Snow 0.00 in 0.00 in - ()
Month to date snowfall 0.0 0.0  
Since 1 July snowfall 0.0 0.0  
Since 1 September snowfall 0.0 0.0  
Snow Depth 0.00 in    
Sea Level Pressure  
Sea Level Pressure 30.25 in    
Wind  
Wind Speed 11 mph (East)    
Max Wind Speed 17 mph    
Max Gust Speed 26 mph    
Visibility 8 miles    
Events Rain    
T = Trace of Precipitation, MM = Missing Value Source: NWS Daily Summary

Daily Weather History Graph

Daily Weather History Graph

Search for Another Location

Airport or City:

Astronomy

Sep. 29, 2019 Rise Set
Actual Time 7:39 AM EDT 7:30 PM EDT
Civil Twilight 7:11 AM EDT 7:58 PM EDT
Nautical Twilight 6:38 AM EDT 8:31 PM EDT
Astronomical Twilight 6:04 AM EDT 9:04 PM EDT
Moon 8:29 AM EDT (9/29) 8:28 PM EDT (9/29)
Length of Visible Light 12h 46m
Length of Day
11h 50m
New Moon, 1% of the Moon is Illuminated
Sep 29
New Moon
Oct 5
First Quarter
Oct 13
Full
Oct 21
Last Quarter
Oct 27
New

Hourly Weather History & Observations

Time (EDT) Temp. Dew Point Humidity Pressure Visibility Wind Dir Wind Speed Gust Speed Precip Events Conditions
12:55 AM 54.0 °F 48.0 °F 80% 30.29 in 10.0 mi NE 8.1 mph - N/A   Clear
1:55 AM 54.0 °F 48.9 °F 83% 30.27 in 10.0 mi ENE 11.5 mph - N/A   Clear
2:55 AM 54.0 °F 50.0 °F 86% 30.27 in 10.0 mi ENE 11.5 mph - N/A   Clear
3:55 AM 54.0 °F 50.0 °F 86% 30.27 in 10.0 mi East 8.1 mph - N/A   Partly Cloudy
4:55 AM 54.0 °F 50.0 °F 86% 30.27 in 10.0 mi ENE 12.7 mph - N/A   Scattered Clouds
5:55 AM 55.9 °F 51.1 °F 84% 30.28 in 10.0 mi ENE 10.4 mph - N/A   Overcast
6:42 AM 55.0 °F 50.0 °F 83% 30.28 in 10.0 mi ENE 12.7 mph 20.7 mph 0.00 in   Overcast
6:55 AM 55.0 °F 50.0 °F 83% 30.30 in 10.0 mi ENE 11.5 mph - 0.00 in   Overcast
7:55 AM 54.0 °F 48.9 °F 83% 30.33 in 9.0 mi NNE 6.9 mph - 0.01 in Rain Light Rain
8:55 AM 52.0 °F 48.9 °F 89% 30.34 in 5.0 mi NE 12.7 mph - 0.16 in Rain Rain
9:55 AM 53.1 °F 48.9 °F 86% 30.32 in 9.0 mi East 11.5 mph - 0.10 in Rain Light Rain
10:55 AM 54.0 °F 51.1 °F 90% 30.30 in 9.0 mi East 15.0 mph - 0.05 in Rain Light Rain
11:04 AM 54.0 °F 51.1 °F 90% 30.29 in 6.0 mi East 15.0 mph - 0.00 in Rain Light Rain
11:35 AM 55.4 °F 51.8 °F 88% 30.28 in 3.0 mi East 15.0 mph 24.2 mph N/A Rain Light Rain
11:55 AM 55.9 °F 52.0 °F 87% 30.28 in 5.0 mi East 13.8 mph 26.5 mph 0.04 in Rain Light Rain
12:13 PM 55.9 °F 52.0 °F 87% 30.27 in 2.5 mi East 16.1 mph 24.2 mph 0.00 in Rain Rain
12:46 PM 55.9 °F 53.1 °F 90% 30.26 in 10.0 mi East 12.7 mph - 0.05 in Rain Light Rain
12:55 PM 57.0 °F 53.1 °F 87% 30.26 in 10.0 mi East 11.5 mph - 0.05 in   Overcast
1:06 PM 57.0 °F 53.1 °F 87% 30.25 in 10.0 mi ENE 13.8 mph - 0.00 in Rain Light Rain
1:55 PM 57.9 °F 54.0 °F 87% 30.25 in 10.0 mi East 11.5 mph - 0.00 in   Overcast
2:35 PM 57.9 °F 54.0 °F 87% 30.22 in 4.0 mi East 13.8 mph 21.9 mph 0.00 in Rain Light Rain
2:55 PM 57.0 °F 54.0 °F 89% 30.23 in 10.0 mi East 11.5 mph - 0.00 in   Overcast
3:15 PM 57.0 °F 54.0 °F 89% 30.22 in 5.0 mi East 12.7 mph - N/A   Overcast
3:29 PM 57.9 °F 54.0 °F 87% 30.22 in 4.0 mi East 12.7 mph - N/A   Overcast
3:55 PM 57.9 °F 54.0 °F 87% 30.22 in 7.0 mi East 15.0 mph 21.9 mph N/A   Overcast
4:55 PM 57.0 °F 54.0 °F 89% 30.20 in 4.0 mi East 13.8 mph - N/A   Overcast
5:07 PM 57.0 °F 54.0 °F 89% 30.20 in 2.5 mi East 11.5 mph - N/A   Overcast
5:39 PM 57.9 °F 55.0 °F 90% 30.20 in 4.0 mi East 11.5 mph - N/A   Overcast
6:55 PM 57.9 °F 55.0 °F 90% 30.19 in 10.0 mi East 10.4 mph - N/A   Overcast
7:55 PM 57.9 °F 55.0 °F 90% 30.19 in 10.0 mi East 9.2 mph - N/A   Overcast
8:55 PM 57.9 °F 55.0 °F 90% 30.18 in 10.0 mi East 12.7 mph - N/A   Overcast
9:55 PM 59.0 °F 55.9 °F 90% 30.17 in 10.0 mi East 12.7 mph - N/A   Overcast
10:55 PM 59.0 °F 55.9 °F 90% 30.19 in 7.0 mi East 10.4 mph - N/A   Overcast
11:55 PM 59.0 °F 55.9 °F 90% 30.18 in 9.0 mi East 9.2 mph - N/A   Overcast